Location: Doux
(49.5045°N, 4.4321°E)
Time: 15:11:21
(UTC+00:00)

Cosmos 1400 Rocket - Pass Details

Date: 23 May 2024
Orbit: 501 x 544 km, 81.2° (Epoch: 18 June)

Event Time Altitude Azimuth Distance (km) Brightness Sun altitude
Exits shadow 00:33:05 48° 213° (SSW) 722 3.0 -18.8°
Maximum altitude 00:34:06 73° 282° (WNW) 575 2.8 -18.8°
Drops below altitude 10° 00:38:06 10° 8° (N) 1,817 6.7 -18.6°
Sets 00:40:17 0° 11° (N) 2,709 8.1 -18.5°
